Regional Weather Roundup
Issued by NWS Newport/Morehead, NC

Current Version | Previous Version | Text Only | Print | Product List | Glossary On
Versions: 1 2 3 4 5 6 7 8 9 10 11 12 13 14 15 16 17 18 19 20 21 22 23 24 25 26 27 28 29 30 31 32 33 34 35 36 37 38 39 40 41 42 43 44 45 46 47 48 49 50
000
ASUS42 KMHX 271222
RWRMHX
WEATHER ROUNDUP FOR EASTERN NORTH CAROLINA
NATIONAL WEATHER SERVICE NEWPORT/MOREHEAD CITY NC
800 AM EDT WED AUG 27 2014

NOTE: "FAIR" INDICATES FEW OR NO CLOUDS BELOW 12,000 FEET
WITH NO SIGNIFICANT WEATHER AND/OR OBSTRUCTIONS TO VISIBILITY

NCZ015>017-031-032-045>047-102-103-271300-
NORTH COAST

CITY           SKY/WX    TMP DP  RH WIND       PRES   REMARKS
EDENTON        CLOUDY    69  68  98 NE8       30.04R FOG
ELIZABETH CITY MOSUNNY   73  70  88 N10       30.03S
KITTY HAWK     PTSUNNY   75  72  91 N7        30.00S
MANTEO         CLOUDY    75  72  89 N13G18    30.01R

$$

NCZ045>047-081-094-103-104-271300-
CENTRAL COAST

CITY           SKY/WX    TMP DP  RH WIND       PRES   REMARKS
FRISCO         CLOUDY    76  75  97 NE10G20   29.97R
SWANQUARTER      N/A     73 N/A N/A VRB9      29.97S

$$

NCZ095-097-098-100-101-271300-
SOUTHERN COAST

CITY           SKY/WX    TMP DP  RH WIND       PRES   REMARKS
BEAUFORT       MOSUNNY   75  72  90 N13       29.97S
CEDAR ISLAND     N/A     77 N/A N/A VRB18G25  30.00F
JACKSONVILLE   CLOUDY    67  65  93 N9        30.00S
NEWPORT        NOT AVBL
PINEY ISLAND   SUNNY     78  74  87 N16G22    29.98R
WILMINGTON     SUNNY     69  65  86 N9        30.00S


$$

NCZ011>013-027>030-043-044-078>080-089-090>093-098-271300-
COASTAL PLAIN

CITY           SKY/WX    TMP DP  RH WIND       PRES   REMARKS
AHOSKIE        CLOUDY    63  62  97 N6        30.07R VSB 1/2
CLINTON        PTSUNNY   64  64  99 N6        30.04S FOG
ELIZABETHTOWN  SUNNY     65  64  95 N5        30.04R
GOLDSBORO      CLOUDY    66  66 100 N8        30.03S FOG
GREENVILLE     CLOUDY    68  68 100 N6        30.06S FOG
HAVELOCK       MOSUNNY   72  69  90 N14       30.00R
KENANSVILLE    CLOUDY    64  64 100 N7        30.05S FOG
KINSTON        FOG       66  66 100 N7        30.05R VSB 3/4
NEW BERN       CLOUDY    71  67  87 N10       30.03R
RICHLANDS      CLOUDY    64  61  88 N7        30.03R
ROANOKE RAPIDS NOT AVBL
ROCKY MOUNT    CLOUDY    63  62  97 N6        30.06R
WASHINGTON     CLOUDY    69  68  94 N9        30.04R
WHITEVILLE     SUNNY     67  63  86 N3        30.03R

$$

AMZ130-135-150-152-154-156-158-170-250-252-270-ANZ085-086-088-633-658-670-271300-
MARINE OBSERVATIONS

STATION/POSITION TIME  TEMP    WIND        PRES    WAVE   SWELL
                       AIR SEA DIR/SP/G            HT/PER HT/PER
                 (UTC) (F)     (DEG/KT/KT) (MB)    (FT/S) (FT/S)
CHESAPEAKE LIGHT 1200   73      30/ 16/ 17 1017.8
BUOY 44014       1200   77 78   30/ 16/ 17 1015.7    7/11   5/11
DUCK             1200   75 76   20/ 16/ 18 1015.5
2E DUCK          1200                        N/A     5/12   3/12
OREGON INLET     1200   76 77   10/ 10/ 17 1015.5
BUOY 44095       1200      76                N/A     6/10   3/11
20E OREGON INLET NOT AVBL
HATTERAS CG      1200   77 78   20/ 16/ 20 1015.0
DIAMOND BUOY     1200   79     360/ 21/ 25 1013.2    8/ 8   5/13
CAPE LOOKOUT     1200   76      10/ 16/ 20 1014.4
BEAUFORT LAB     1200   74 78   10/ 12/ 15 1014.5
30 SE NEW RIVER  1200   77 80   30/ 19/ 23 1014.2    6/11   5/11
5 SE WRIGHTSVILL 1200   69 80  360/ 17/ 19   N/A
BUOY 41002       1146   80 81  360/ 27/ 33 1006.8   13/12   8/12
BUOY 41004       1200   79 83   20/ 17/ 19 1014.5    7/11   5/11

$$



USA.gov is the U.S. government's official web portal to all federal, state and local government web resources and services.